Year,Month,Day,Hour,Minute,Value (Times are PST for temperature in C)
2007,06,27,00,00,15.20
2007,06,27,00,01,15.20
2007,06,27,00,02,15.10
2007,06,27,00,03,15.00
2007,06,27,00,04,15.00
2007,06,27,00,05,15.00
2007,06,27,00,06,15.00
2007,06,27,00,07,15.00
2007,06,27,00,08,14.90
2007,06,27,00,09,14.80
2007,06,27,00,10,14.80
2007,06,27,00,11,14.80
2007,06,27,00,12,14.80
2007,06,27,00,13,14.70
2007,06,27,00,14,14.70
2007,06,27,00,15,14.70
2007,06,27,00,16,14.60
2007,06,27,00,17,14.60
2007,06,27,00,18,14.60
2007,06,27,00,19,14.60
2007,06,27,00,20,14.60
2007,06,27,00,21,14.60
2007,06,27,00,22,14.60
2007,06,27,00,23,14.60
2007,06,27,00,24,14.60
2007,06,27,00,25,14.60
2007,06,27,00,26,14.60
2007,06,27,00,27,14.60
2007,06,27,00,28,14.60
2007,06,27,00,29,14.60
2007,06,27,00,30,14.50
2007,06,27,00,31,14.50
2007,06,27,00,32,14.60
2007,06,27,00,33,14.60
2007,06,27,00,34,14.60
2007,06,27,00,35,14.60
2007,06,27,00,36,14.50
2007,06,27,00,37,14.50
2007,06,27,00,38,14.50
2007,06,27,00,39,14.50
2007,06,27,00,40,14.50
2007,06,27,00,41,14.40
2007,06,27,00,42,14.40
2007,06,27,00,43,14.40
2007,06,27,00,44,14.40
2007,06,27,00,45,14.40
2007,06,27,00,46,14.40
2007,06,27,00,47,14.40
2007,06,27,00,48,14.30
2007,06,27,00,49,14.30
2007,06,27,00,50,14.30
2007,06,27,00,51,14.20
2007,06,27,00,52,14.20
2007,06,27,00,53,14.10
2007,06,27,00,54,14.20
2007,06,27,00,55,14.20
2007,06,27,00,56,14.20
2007,06,27,00,57,14.10
2007,06,27,00,58,14.10
2007,06,27,00,59,14.10
2007,06,27,01,00,14.10
2007,06,27,01,01,14.10
2007,06,27,01,02,14.10
2007,06,27,01,03,14.10
2007,06,27,01,04,14.00
2007,06,27,01,05,14.00
2007,06,27,01,06,14.00
2007,06,27,01,07,13.90
2007,06,27,01,08,13.90
2007,06,27,01,09,13.90
2007,06,27,01,10,13.80
2007,06,27,01,11,13.80
2007,06,27,01,12,13.80
2007,06,27,01,13,13.80
2007,06,27,01,14,13.80
2007,06,27,01,15,13.80
2007,06,27,01,16,13.80
2007,06,27,01,17,13.80
2007,06,27,01,18,13.90
2007,06,27,01,19,13.90
2007,06,27,01,20,13.90
2007,06,27,01,21,13.90
2007,06,27,01,22,13.90
2007,06,27,01,23,13.90
2007,06,27,01,24,13.90
2007,06,27,01,25,13.90
2007,06,27,01,26,13.80
2007,06,27,01,27,13.80
2007,06,27,01,28,13.70
2007,06,27,01,29,13.70
2007,06,27,01,30,13.70
2007,06,27,01,31,13.70
2007,06,27,01,32,13.60
2007,06,27,01,33,13.60
2007,06,27,01,34,13.50
2007,06,27,01,35,13.50
2007,06,27,01,36,13.50
2007,06,27,01,37,13.40
2007,06,27,01,38,13.40
2007,06,27,01,39,13.40
2007,06,27,01,40,13.40
2007,06,27,01,41,13.30
2007,06,27,01,42,13.30
2007,06,27,01,43,13.30
2007,06,27,01,44,13.30
2007,06,27,01,45,13.30
2007,06,27,01,46,13.30
2007,06,27,01,47,13.30
2007,06,27,01,48,13.20
2007,06,27,01,49,13.20
2007,06,27,01,50,13.20
2007,06,27,01,51,13.20
2007,06,27,01,52,13.20
2007,06,27,01,53,13.20
2007,06,27,01,54,13.20
2007,06,27,01,55,13.20
2007,06,27,01,56,13.20
2007,06,27,01,57,13.20
2007,06,27,01,58,13.10
2007,06,27,01,59,13.10
2007,06,27,02,00,13.10
2007,06,27,02,01,13.10
2007,06,27,02,02,13.10
2007,06,27,02,03,13.10
2007,06,27,02,04,13.20
2007,06,27,02,05,13.20
2007,06,27,02,06,13.20
2007,06,27,02,07,13.10
2007,06,27,02,08,13.10
2007,06,27,02,09,13.10
2007,06,27,02,10,13.10
2007,06,27,02,11,13.10
2007,06,27,02,12,13.10
2007,06,27,02,13,13.00
2007,06,27,02,14,13.00
2007,06,27,02,15,13.00
2007,06,27,02,16,12.90
2007,06,27,02,17,12.90
2007,06,27,02,18,12.90
2007,06,27,02,19,12.90
2007,06,27,02,20,12.80
2007,06,27,02,21,12.80
2007,06,27,02,22,12.80
2007,06,27,02,23,12.80
2007,06,27,02,24,12.80
2007,06,27,02,25,12.80
2007,06,27,02,26,12.80
2007,06,27,02,27,12.80
2007,06,27,02,28,12.80
2007,06,27,02,29,12.80
2007,06,27,02,30,12.80
2007,06,27,02,31,12.80
2007,06,27,02,32,12.80
2007,06,27,02,33,12.80
2007,06,27,02,34,12.80
2007,06,27,02,35,12.80
2007,06,27,02,36,12.80
2007,06,27,02,37,12.80
2007,06,27,02,38,12.80
2007,06,27,02,39,12.80
2007,06,27,02,40,12.80
2007,06,27,02,41,12.80
2007,06,27,02,42,12.80
2007,06,27,02,43,12.80
2007,06,27,02,44,12.80
2007,06,27,02,45,12.70
2007,06,27,02,46,12.70
2007,06,27,02,47,12.70
2007,06,27,02,48,12.70
2007,06,27,02,49,12.70
2007,06,27,02,50,12.80
2007,06,27,02,51,12.80
2007,06,27,02,52,12.80
2007,06,27,02,53,12.80
2007,06,27,02,54,12.80
2007,06,27,02,55,12.80
2007,06,27,02,56,12.80
2007,06,27,02,57,12.80
2007,06,27,02,58,12.80
2007,06,27,02,59,12.70
2007,06,27,03,00,12.70
2007,06,27,03,01,12.70
2007,06,27,03,02,12.70
2007,06,27,03,03,12.70
2007,06,27,03,04,12.70
2007,06,27,03,05,12.60
2007,06,27,03,06,12.70
2007,06,27,03,07,12.70
2007,06,27,03,08,12.60
2007,06,27,03,09,12.60
2007,06,27,03,10,12.60
2007,06,27,03,11,12.60
2007,06,27,03,12,12.60
2007,06,27,03,13,12.60
2007,06,27,03,14,12.60
2007,06,27,03,15,12.60
2007,06,27,03,16,12.60
2007,06,27,03,17,12.60
2007,06,27,03,18,12.60
2007,06,27,03,19,12.60
2007,06,27,03,20,12.60
2007,06,27,03,21,12.60
2007,06,27,03,22,12.60
2007,06,27,03,23,12.60
2007,06,27,03,24,12.60
2007,06,27,03,25,12.50
2007,06,27,03,26,12.50
2007,06,27,03,27,12.50
2007,06,27,03,28,12.50
2007,06,27,03,29,12.40
2007,06,27,03,30,12.40
2007,06,27,03,31,12.40
2007,06,27,03,32,12.30
2007,06,27,03,33,12.30
2007,06,27,03,34,12.30
2007,06,27,03,35,12.30
2007,06,27,03,36,12.30
2007,06,27,03,37,12.30
2007,06,27,03,38,12.20
2007,06,27,03,39,12.20
2007,06,27,03,40,12.20
2007,06,27,03,41,12.20
2007,06,27,03,42,12.10
2007,06,27,03,43,12.10
2007,06,27,03,44,12.10
2007,06,27,03,45,12.10
2007,06,27,03,46,12.00
2007,06,27,03,47,12.00
2007,06,27,03,48,11.90
2007,06,27,03,49,11.90
2007,06,27,03,50,11.90
2007,06,27,03,51,11.90
2007,06,27,03,52,11.80
2007,06,27,03,53,11.80
2007,06,27,03,54,11.80
2007,06,27,03,55,11.80
2007,06,27,03,56,11.80
2007,06,27,03,57,11.80
2007,06,27,03,58,11.70
2007,06,27,03,59,11.70
2007,06,27,04,00,11.70
2007,06,27,04,01,11.70
2007,06,27,04,02,11.60
2007,06,27,04,03,11.60
2007,06,27,04,04,11.60
2007,06,27,04,05,11.60
2007,06,27,04,06,11.60
2007,06,27,04,07,11.60
2007,06,27,04,08,11.50
2007,06,27,04,09,11.50
2007,06,27,04,10,11.40
2007,06,27,04,11,11.40
2007,06,27,04,12,11.40
2007,06,27,04,13,11.40
2007,06,27,04,14,11.40
2007,06,27,04,15,11.40
2007,06,27,04,16,11.40
2007,06,27,04,17,11.30
2007,06,27,04,18,11.30
2007,06,27,04,19,11.30
2007,06,27,04,20,11.30
2007,06,27,04,21,11.30
2007,06,27,04,22,11.30
2007,06,27,04,23,11.30
2007,06,27,04,24,11.30
2007,06,27,04,25,11.30
2007,06,27,04,26,11.20
2007,06,27,04,27,11.20
2007,06,27,04,28,11.30
2007,06,27,04,29,11.20
2007,06,27,04,30,11.20
2007,06,27,04,31,11.20
2007,06,27,04,32,11.20
2007,06,27,04,33,11.20
2007,06,27,04,34,11.20
2007,06,27,04,35,11.20
2007,06,27,04,36,11.20
2007,06,27,04,37,11.20
2007,06,27,04,38,11.20
2007,06,27,04,39,11.20
2007,06,27,04,40,11.20
2007,06,27,04,41,11.20
2007,06,27,04,42,11.20
2007,06,27,04,43,11.20
2007,06,27,04,44,11.20
2007,06,27,04,45,11.20
2007,06,27,04,46,11.20
2007,06,27,04,47,11.30
2007,06,27,04,48,11.30
2007,06,27,04,49,11.30
2007,06,27,04,50,11.30
2007,06,27,04,51,11.40
2007,06,27,04,52,11.40
2007,06,27,04,53,11.40
2007,06,27,04,54,11.40
2007,06,27,04,55,11.40
2007,06,27,04,56,11.40
2007,06,27,04,57,11.40
2007,06,27,04,58,11.40
2007,06,27,04,59,11.40
2007,06,27,05,00,11.40
2007,06,27,05,01,11.30
2007,06,27,05,02,11.30
2007,06,27,05,03,11.30
2007,06,27,05,04,11.20
2007,06,27,05,05,11.20
2007,06,27,05,06,11.10
2007,06,27,05,07,11.10
2007,06,27,05,08,11.00
2007,06,27,05,09,11.00
2007,06,27,05,10,10.90
2007,06,27,05,11,10.90
2007,06,27,05,12,10.90
2007,06,27,05,13,10.90
2007,06,27,05,14,10.90
2007,06,27,05,15,10.90
2007,06,27,05,16,10.90
2007,06,27,05,17,10.90
2007,06,27,05,18,10.90
2007,06,27,05,19,10.80
2007,06,27,05,20,10.80
2007,06,27,05,21,10.80
2007,06,27,05,22,10.80
2007,06,27,05,23,10.80
2007,06,27,05,24,10.80
2007,06,27,05,25,10.80
2007,06,27,05,26,10.80
2007,06,27,05,27,10.80
2007,06,27,05,28,10.80
2007,06,27,05,29,10.80
2007,06,27,05,30,10.80
2007,06,27,05,31,10.80
2007,06,27,05,32,10.90
2007,06,27,05,33,10.90
2007,06,27,05,34,10.90
2007,06,27,05,35,10.90
2007,06,27,05,36,10.90
2007,06,27,05,37,10.90
2007,06,27,05,38,10.90
2007,06,27,05,39,10.90
2007,06,27,05,40,10.90
2007,06,27,05,41,10.90
2007,06,27,05,42,10.90
2007,06,27,05,43,10.90
2007,06,27,05,44,10.90
2007,06,27,05,45,10.90
2007,06,27,05,46,10.90
2007,06,27,05,47,10.90
2007,06,27,05,48,10.90
2007,06,27,05,49,10.90
2007,06,27,05,50,10.90
2007,06,27,05,51,10.90
2007,06,27,05,52,10.90
2007,06,27,05,53,10.90
2007,06,27,05,54,10.90
2007,06,27,05,55,10.90
2007,06,27,05,56,10.90
2007,06,27,05,57,10.90
2007,06,27,05,58,10.90
2007,06,27,05,59,10.90
2007,06,27,06,00,10.90
2007,06,27,06,01,10.90
2007,06,27,06,02,10.90
2007,06,27,06,03,10.90
2007,06,27,06,04,10.80
2007,06,27,06,05,10.80
2007,06,27,06,06,10.80
2007,06,27,06,07,10.80
2007,06,27,06,08,10.80
2007,06,27,06,09,10.80
2007,06,27,06,10,10.80
2007,06,27,06,11,10.80
2007,06,27,06,12,10.80
2007,06,27,06,13,10.80
2007,06,27,06,14,10.80
2007,06,27,06,15,10.80
2007,06,27,06,16,10.80
2007,06,27,06,17,10.80
2007,06,27,06,18,10.80
2007,06,27,06,19,10.70
2007,06,27,06,20,10.70
2007,06,27,06,21,10.70
2007,06,27,06,22,10.70
2007,06,27,06,23,10.70
2007,06,27,06,24,10.70
2007,06,27,06,25,10.70
2007,06,27,06,26,10.70
2007,06,27,06,27,10.70
2007,06,27,06,28,10.70
2007,06,27,06,29,10.70
2007,06,27,06,30,10.70
2007,06,27,06,31,10.70
2007,06,27,06,32,10.70
2007,06,27,06,33,10.70
2007,06,27,06,34,10.80
2007,06,27,06,35,10.80
2007,06,27,06,36,10.80
2007,06,27,06,37,10.80
2007,06,27,06,38,10.80
2007,06,27,06,39,10.80
2007,06,27,06,40,10.80
2007,06,27,06,41,10.80
2007,06,27,06,44,10.90
2007,06,27,06,45,10.90
2007,06,27,06,46,11.00
2007,06,27,06,47,11.00
2007,06,27,06,48,11.00
2007,06,27,06,49,11.10
2007,06,27,06,50,11.10
2007,06,27,06,51,11.10
2007,06,27,06,52,11.20
2007,06,27,06,53,11.20
2007,06,27,06,54,11.20
2007,06,27,06,55,11.20
2007,06,27,06,56,11.20
2007,06,27,06,57,11.20
2007,06,27,06,58,11.30
2007,06,27,06,59,11.30
2007,06,27,07,00,11.30
2007,06,27,07,01,11.30
2007,06,27,07,02,11.30
2007,06,27,07,03,11.30
2007,06,27,07,04,11.30
2007,06,27,07,05,11.30
2007,06,27,07,06,11.30
2007,06,27,07,07,11.30
2007,06,27,07,08,11.30
2007,06,27,07,09,11.40
2007,06,27,07,10,11.40
2007,06,27,07,11,11.40
2007,06,27,07,12,11.40
2007,06,27,07,13,11.40
2007,06,27,07,14,11.40
2007,06,27,07,15,11.40
2007,06,27,07,16,11.50
2007,06,27,07,17,11.50
2007,06,27,07,18,11.50
2007,06,27,07,19,11.60
2007,06,27,07,20,11.60
2007,06,27,07,21,11.60
2007,06,27,07,22,11.60
2007,06,27,07,23,11.70
2007,06,27,07,24,11.70
2007,06,27,07,25,11.70
2007,06,27,07,26,11.80
2007,06,27,07,27,11.80
2007,06,27,07,28,11.80
2007,06,27,07,29,11.80
2007,06,27,07,30,11.90
2007,06,27,07,31,11.90
2007,06,27,07,32,11.90
2007,06,27,07,33,11.90
2007,06,27,07,34,12.00
2007,06,27,07,35,12.00
2007,06,27,07,36,12.10
2007,06,27,07,37,12.10
2007,06,27,07,38,12.10
2007,06,27,07,39,12.10
2007,06,27,07,40,12.20
2007,06,27,07,41,12.20
2007,06,27,07,42,12.20
2007,06,27,07,43,12.20
2007,06,27,07,44,12.20
2007,06,27,07,45,12.20
2007,06,27,07,46,12.30
2007,06,27,07,47,12.30
2007,06,27,07,48,12.30
2007,06,27,07,49,12.40
2007,06,27,07,50,12.40
2007,06,27,07,51,12.40
2007,06,27,07,52,12.40
2007,06,27,07,53,12.50
2007,06,27,07,54,12.50
2007,06,27,07,55,12.50
2007,06,27,07,56,12.50
2007,06,27,07,57,12.50
2007,06,27,07,58,12.50
2007,06,27,07,59,12.50
2007,06,27,08,00,12.50
2007,06,27,08,01,12.60
2007,06,27,08,02,12.60
2007,06,27,08,03,12.60
2007,06,27,08,04,12.60
2007,06,27,08,05,12.70
2007,06,27,08,06,12.70
2007,06,27,08,07,12.70
2007,06,27,08,08,12.80
2007,06,27,08,09,12.80
2007,06,27,08,10,12.80
2007,06,27,08,11,12.80
2007,06,27,08,12,12.80
2007,06,27,08,13,12.90
2007,06,27,08,14,12.90
2007,06,27,08,15,12.90
2007,06,27,08,16,12.90
2007,06,27,08,17,12.90
2007,06,27,08,18,12.90
2007,06,27,08,19,12.90
2007,06,27,08,20,13.00
2007,06,27,08,21,13.00
2007,06,27,08,22,13.10
2007,06,27,08,23,13.10
2007,06,27,08,24,13.10
2007,06,27,08,25,13.20
2007,06,27,08,26,13.20
2007,06,27,08,27,13.20
2007,06,27,08,28,13.20
2007,06,27,08,29,13.20
2007,06,27,08,30,13.20
2007,06,27,08,31,13.20
2007,06,27,08,32,13.30
2007,06,27,08,33,13.30
2007,06,27,08,34,13.30
2007,06,27,08,35,13.30
2007,06,27,08,36,13.40
2007,06,27,08,37,13.40
2007,06,27,08,38,13.40
2007,06,27,08,39,13.40
2007,06,27,08,40,13.40
2007,06,27,08,41,13.30
2007,06,27,08,42,13.30
2007,06,27,08,43,13.20
2007,06,27,08,44,13.20
2007,06,27,08,45,13.30
2007,06,27,08,46,13.30
2007,06,27,08,47,13.30
2007,06,27,08,48,13.30
2007,06,27,08,49,13.30
2007,06,27,08,50,13.30
2007,06,27,08,51,13.40
2007,06,27,08,52,13.40
2007,06,27,08,53,13.40
2007,06,27,08,54,13.50
2007,06,27,08,55,13.50
2007,06,27,08,56,13.50
2007,06,27,08,57,13.60
2007,06,27,08,58,13.60
2007,06,27,08,59,13.60
2007,06,27,09,00,13.60
2007,06,27,09,01,13.60
2007,06,27,09,02,13.60
2007,06,27,09,03,13.60
2007,06,27,09,04,13.60
2007,06,27,09,05,13.60
2007,06,27,09,06,13.60
2007,06,27,09,07,13.60
2007,06,27,09,08,13.50
2007,06,27,09,09,13.50
2007,06,27,09,10,13.50
2007,06,27,09,11,13.50
2007,06,27,09,12,13.40
2007,06,27,09,13,13.40
2007,06,27,09,14,13.40
2007,06,27,09,15,13.40
2007,06,27,09,16,13.40
2007,06,27,09,17,13.40
2007,06,27,09,18,13.40
2007,06,27,09,19,13.40
2007,06,27,09,20,13.40
2007,06,27,09,21,13.40
2007,06,27,09,22,13.40
2007,06,27,09,23,13.40
2007,06,27,09,24,13.40
2007,06,27,09,25,13.40
2007,06,27,09,26,13.40
2007,06,27,09,27,13.40
2007,06,27,09,28,13.40
2007,06,27,09,29,13.40
2007,06,27,09,30,13.40
2007,06,27,09,31,13.50
2007,06,27,09,32,13.60
2007,06,27,09,33,13.70
2007,06,27,09,34,13.80
2007,06,27,09,35,13.90
2007,06,27,09,36,14.00
2007,06,27,09,37,14.20
2007,06,27,09,38,14.30
2007,06,27,09,39,14.40
2007,06,27,09,40,14.50
2007,06,27,09,41,14.70
2007,06,27,09,42,14.80
2007,06,27,09,43,15.00
2007,06,27,09,44,15.00
2007,06,27,09,45,15.20
2007,06,27,09,46,15.30
2007,06,27,09,47,15.40
2007,06,27,09,48,15.50
2007,06,27,09,49,15.60
2007,06,27,09,50,15.70
2007,06,27,09,51,15.70
2007,06,27,09,52,15.80
2007,06,27,09,53,15.70
2007,06,27,09,54,15.70
2007,06,27,09,55,15.70
2007,06,27,09,56,15.60
2007,06,27,09,57,15.60
2007,06,27,09,58,15.60
2007,06,27,09,59,15.60
2007,06,27,10,00,15.60
2007,06,27,10,01,15.60
2007,06,27,10,02,15.60
2007,06,27,10,03,15.70
2007,06,27,10,04,15.70
2007,06,27,10,05,15.70
2007,06,27,10,06,15.70
2007,06,27,10,07,15.80
2007,06,27,10,08,15.80
2007,06,27,10,09,15.80
2007,06,27,10,10,15.80
2007,06,27,10,11,15.90
2007,06,27,10,12,15.90
2007,06,27,10,13,16.00
2007,06,27,10,14,16.00
2007,06,27,10,15,16.10
2007,06,27,10,16,16.00
2007,06,27,10,17,16.10
2007,06,27,10,18,16.10
2007,06,27,10,19,16.20
2007,06,27,10,20,16.20
2007,06,27,10,21,16.30
2007,06,27,10,22,16.40
2007,06,27,10,23,16.40
2007,06,27,10,24,16.50
2007,06,27,10,25,16.60
2007,06,27,10,26,16.60
2007,06,27,10,27,16.70
2007,06,27,10,28,16.80
2007,06,27,10,29,16.90
2007,06,27,10,30,17.00
2007,06,27,10,31,17.10
2007,06,27,10,32,17.20
2007,06,27,10,33,17.30
2007,06,27,10,34,17.40
2007,06,27,10,35,17.50
2007,06,27,10,36,17.60
2007,06,27,10,37,17.60
2007,06,27,10,38,17.70
2007,06,27,10,39,17.70
2007,06,27,10,40,17.70
2007,06,27,10,41,17.70
2007,06,27,10,42,17.70
2007,06,27,10,43,17.80
2007,06,27,10,44,17.80
2007,06,27,10,45,17.90
2007,06,27,10,46,17.90
2007,06,27,10,47,18.00
2007,06,27,10,48,18.10
2007,06,27,10,49,18.20
2007,06,27,10,50,18.30
2007,06,27,10,51,18.30
2007,06,27,10,52,18.30
2007,06,27,10,53,18.30
2007,06,27,10,54,18.20
2007,06,27,10,55,18.20
2007,06,27,10,56,18.20
2007,06,27,10,57,18.10
2007,06,27,10,58,18.10
2007,06,27,10,59,18.10
2007,06,27,11,00,18.10
2007,06,27,11,01,18.20
2007,06,27,11,02,18.20
2007,06,27,11,03,18.30
2007,06,27,11,04,18.30
2007,06,27,11,05,18.30
2007,06,27,11,06,18.30
2007,06,27,11,07,18.20
2007,06,27,11,08,18.20
2007,06,27,11,09,18.20
2007,06,27,11,10,18.20
2007,06,27,11,11,18.20
2007,06,27,11,12,18.20
2007,06,27,11,13,18.30
2007,06,27,11,14,18.30
2007,06,27,11,15,18.40
2007,06,27,11,16,18.50
2007,06,27,11,17,18.50
2007,06,27,11,18,18.60
2007,06,27,11,19,18.60
2007,06,27,11,20,18.60
2007,06,27,11,21,18.60
2007,06,27,11,22,18.60
2007,06,27,11,23,18.50
2007,06,27,11,24,18.40
2007,06,27,11,25,18.50
2007,06,27,11,26,18.60
2007,06,27,11,27,18.70
2007,06,27,11,28,18.70
2007,06,27,11,29,18.70
2007,06,27,11,30,18.70
2007,06,27,11,31,18.70
2007,06,27,11,32,18.80
2007,06,27,11,33,18.90
2007,06,27,11,34,19.00
2007,06,27,11,35,19.10
2007,06,27,11,36,19.20
2007,06,27,11,37,19.20
2007,06,27,11,38,19.30
2007,06,27,11,39,19.30
2007,06,27,11,40,19.40
2007,06,27,11,41,19.50
2007,06,27,11,42,19.60
2007,06,27,11,43,19.60
2007,06,27,11,44,19.60
2007,06,27,11,45,19.60
2007,06,27,11,46,19.60
2007,06,27,11,47,19.60
2007,06,27,11,48,19.50
2007,06,27,11,49,19.40
2007,06,27,11,50,19.40
2007,06,27,11,51,19.40
2007,06,27,11,52,19.50
2007,06,27,11,53,19.50
2007,06,27,11,54,19.50
2007,06,27,11,55,19.60
2007,06,27,11,56,19.70
2007,06,27,11,57,19.80
2007,06,27,11,58,19.90
2007,06,27,11,59,20.00
2007,06,27,12,00,20.10
2007,06,27,12,01,20.10
2007,06,27,12,02,20.10
2007,06,27,12,03,20.10
2007,06,27,12,04,20.10
2007,06,27,12,05,20.10
2007,06,27,12,06,20.10
2007,06,27,12,07,20.20
2007,06,27,12,08,20.30
2007,06,27,12,09,20.40
2007,06,27,12,10,20.50
2007,06,27,12,11,20.50
2007,06,27,12,12,20.50
2007,06,27,12,13,20.60
2007,06,27,12,14,20.70
2007,06,27,12,15,20.70
2007,06,27,12,16,20.80
2007,06,27,12,17,20.90
2007,06,27,12,18,20.80
2007,06,27,12,19,20.80
2007,06,27,12,20,20.80
2007,06,27,12,21,20.80
2007,06,27,12,22,20.80
2007,06,27,12,23,21.00
2007,06,27,12,24,21.00
2007,06,27,12,25,21.10
2007,06,27,12,26,21.10
2007,06,27,12,27,21.10
2007,06,27,12,28,21.20
2007,06,27,12,29,21.20
2007,06,27,12,30,21.20
2007,06,27,12,31,21.20
2007,06,27,12,32,21.30
2007,06,27,12,33,21.30
2007,06,27,12,34,21.20
2007,06,27,12,35,21.10
2007,06,27,12,36,21.20
2007,06,27,12,37,21.10
2007,06,27,12,38,21.10
2007,06,27,12,39,21.10
2007,06,27,12,40,21.10
2007,06,27,12,41,21.10
2007,06,27,12,42,21.20
2007,06,27,12,43,21.30
2007,06,27,12,44,21.30
2007,06,27,12,45,21.30
2007,06,27,12,46,21.30
2007,06,27,12,47,21.30
2007,06,27,12,48,21.20
2007,06,27,12,49,21.20
2007,06,27,12,50,21.10
2007,06,27,12,51,21.20
2007,06,27,12,52,21.10
2007,06,27,12,53,21.10
2007,06,27,12,54,21.10
2007,06,27,12,55,21.10
2007,06,27,12,56,21.10
2007,06,27,12,57,21.20
2007,06,27,12,58,21.10
2007,06,27,12,59,21.10
2007,06,27,13,00,21.10
2007,06,27,13,01,21.10
2007,06,27,13,02,21.10
2007,06,27,13,03,21.10
2007,06,27,13,04,21.20
2007,06,27,13,05,21.30
2007,06,27,13,06,21.30
2007,06,27,13,07,21.40
2007,06,27,13,08,21.40
2007,06,27,13,09,21.40
2007,06,27,13,10,21.50
2007,06,27,13,11,21.60
2007,06,27,13,12,21.60
2007,06,27,13,13,21.70
2007,06,27,13,14,21.80
2007,06,27,13,15,21.80
2007,06,27,13,16,21.80
2007,06,27,13,17,21.80
2007,06,27,13,18,21.80
2007,06,27,13,19,21.80
2007,06,27,13,20,21.80
2007,06,27,13,21,21.80
2007,06,27,13,22,21.80
2007,06,27,13,23,21.80
2007,06,27,13,24,21.70
2007,06,27,13,25,21.60
2007,06,27,13,26,21.60
2007,06,27,13,27,21.50
2007,06,27,13,28,21.50
2007,06,27,13,29,21.50
2007,06,27,13,30,21.60
2007,06,27,13,31,21.70
2007,06,27,13,32,21.70
2007,06,27,13,33,21.80
2007,06,27,13,34,21.90
2007,06,27,13,35,21.90
2007,06,27,13,36,21.90
2007,06,27,13,37,22.00
2007,06,27,13,38,22.00
2007,06,27,13,39,22.10
2007,06,27,13,40,22.10
2007,06,27,13,41,22.00
2007,06,27,13,42,21.90
2007,06,27,13,43,21.80
2007,06,27,13,44,21.70
2007,06,27,13,45,21.70
2007,06,27,13,46,21.60
2007,06,27,13,47,21.60
2007,06,27,13,48,21.50
2007,06,27,13,49,21.50
2007,06,27,13,50,21.50
2007,06,27,13,51,21.60
2007,06,27,13,52,21.60
2007,06,27,13,53,21.60
2007,06,27,13,54,21.60
2007,06,27,13,55,21.60
2007,06,27,13,56,21.60
2007,06,27,13,57,21.60
2007,06,27,13,58,21.60
2007,06,27,13,59,21.70
2007,06,27,14,00,21.70
2007,06,27,14,01,21.70
2007,06,27,14,02,21.70
2007,06,27,14,03,21.80
2007,06,27,14,04,21.80
2007,06,27,14,05,21.90
2007,06,27,14,06,22.00
2007,06,27,14,07,22.00
2007,06,27,14,08,22.10
2007,06,27,14,09,22.10
2007,06,27,14,10,22.10
2007,06,27,14,11,22.10
2007,06,27,14,12,22.00
2007,06,27,14,13,22.00
2007,06,27,14,14,22.00
2007,06,27,14,15,22.00
2007,06,27,14,16,22.00
2007,06,27,14,17,22.00
2007,06,27,14,18,22.10
2007,06,27,14,19,22.10
2007,06,27,14,20,22.10
2007,06,27,14,21,22.10
2007,06,27,14,22,22.10
2007,06,27,14,23,22.10
2007,06,27,14,24,22.10
2007,06,27,14,25,22.10
2007,06,27,14,26,22.10
2007,06,27,14,27,22.10
2007,06,27,14,28,22.10
2007,06,27,14,29,22.10
2007,06,27,14,30,22.10
2007,06,27,14,31,22.20
2007,06,27,14,32,22.20
2007,06,27,14,33,22.20
2007,06,27,14,34,22.20
2007,06,27,14,35,22.10
2007,06,27,14,36,22.00
2007,06,27,14,37,22.00
2007,06,27,14,38,22.00
2007,06,27,14,39,22.10
2007,06,27,14,40,22.10
2007,06,27,14,41,22.10
2007,06,27,14,42,22.20
2007,06,27,14,43,22.20
2007,06,27,14,44,22.20
2007,06,27,14,45,22.20
2007,06,27,14,46,22.20
2007,06,27,14,47,22.30
2007,06,27,14,48,22.30
2007,06,27,14,49,22.30
2007,06,27,14,50,22.30
2007,06,27,14,51,22.30
2007,06,27,14,52,22.30
2007,06,27,14,53,22.30
2007,06,27,14,54,22.40
2007,06,27,14,55,22.40
2007,06,27,14,56,22.40
2007,06,27,14,57,22.40
2007,06,27,14,58,22.40
2007,06,27,14,59,22.40
2007,06,27,15,00,22.40
2007,06,27,15,01,22.40
2007,06,27,15,02,22.30
2007,06,27,15,03,22.30
2007,06,27,15,04,22.30
2007,06,27,15,05,22.30
2007,06,27,15,06,22.30
2007,06,27,15,07,22.30
2007,06,27,15,08,22.30
2007,06,27,15,09,22.30
2007,06,27,15,10,22.20
2007,06,27,15,11,22.20
2007,06,27,15,12,22.20
2007,06,27,15,13,22.10
2007,06,27,15,14,22.00
2007,06,27,15,15,21.90
2007,06,27,15,16,21.90
2007,06,27,15,17,21.90
2007,06,27,15,18,21.90
2007,06,27,15,19,21.80
2007,06,27,15,20,21.80
2007,06,27,15,21,21.70
2007,06,27,15,22,21.70
2007,06,27,15,23,21.70
2007,06,27,15,24,21.70
2007,06,27,15,25,21.80
2007,06,27,15,26,21.80
2007,06,27,15,27,21.80
2007,06,27,15,28,21.80
2007,06,27,15,29,21.90
2007,06,27,15,30,22.00
2007,06,27,15,31,22.10
2007,06,27,15,32,22.10
2007,06,27,15,33,22.20
2007,06,27,15,34,22.30
2007,06,27,15,35,22.30
2007,06,27,15,36,22.30
2007,06,27,15,37,22.30
2007,06,27,15,38,22.40
2007,06,27,15,39,22.40
2007,06,27,15,40,22.40
2007,06,27,15,41,22.30
2007,06,27,15,42,22.20
2007,06,27,15,43,22.20
2007,06,27,15,44,22.20
2007,06,27,15,45,22.20
2007,06,27,15,46,22.30
2007,06,27,15,47,22.40
2007,06,27,15,48,22.40
2007,06,27,15,49,22.40
2007,06,27,15,50,22.30
2007,06,27,15,51,22.30
2007,06,27,15,52,22.40
2007,06,27,15,53,22.40
2007,06,27,15,54,22.50
2007,06,27,15,55,22.50
2007,06,27,15,56,22.40
2007,06,27,15,57,22.40
2007,06,27,15,58,22.30
2007,06,27,15,59,22.40
2007,06,27,16,00,22.40
2007,06,27,16,01,22.50
2007,06,27,16,02,22.60
2007,06,27,16,03,22.60
2007,06,27,16,04,22.50
2007,06,27,16,05,22.50
2007,06,27,16,06,22.40
2007,06,27,16,07,22.50
2007,06,27,16,08,22.60
2007,06,27,16,09,22.70
2007,06,27,16,10,22.80
2007,06,27,16,11,22.80
2007,06,27,16,12,22.90
2007,06,27,16,13,23.00
2007,06,27,16,14,23.00
2007,06,27,16,15,23.10
2007,06,27,16,16,23.00
2007,06,27,16,17,22.90
2007,06,27,16,18,22.80
2007,06,27,16,19,22.80
2007,06,27,16,20,22.70
2007,06,27,16,21,22.70
2007,06,27,16,22,22.70
2007,06,27,16,23,22.70
2007,06,27,16,24,22.60
2007,06,27,16,25,22.50
2007,06,27,16,26,22.50
2007,06,27,16,27,22.40
2007,06,27,16,28,22.30
2007,06,27,16,29,22.30
2007,06,27,16,30,22.30
2007,06,27,16,31,22.30
2007,06,27,16,32,22.40
2007,06,27,16,33,22.40
2007,06,27,16,34,22.50
2007,06,27,16,35,22.50
2007,06,27,16,36,22.60
2007,06,27,16,37,22.60
2007,06,27,16,38,22.60
2007,06,27,16,39,22.60
2007,06,27,16,40,22.70
2007,06,27,16,41,22.60
2007,06,27,16,42,22.60
2007,06,27,16,43,22.50
2007,06,27,16,44,22.40
2007,06,27,16,45,22.40
2007,06,27,16,46,22.50
2007,06,27,16,47,22.50
2007,06,27,16,48,22.50
2007,06,27,16,49,22.50
2007,06,27,16,50,22.50
2007,06,27,16,51,22.50
2007,06,27,16,52,22.50
2007,06,27,16,53,22.50
2007,06,27,16,54,22.50
2007,06,27,16,55,22.40
2007,06,27,16,56,22.40
2007,06,27,16,57,22.30
2007,06,27,16,58,22.30
2007,06,27,16,59,22.30
2007,06,27,17,00,22.30
2007,06,27,17,01,22.30
2007,06,27,17,02,22.20
2007,06,27,17,03,22.20
2007,06,27,17,04,22.20
2007,06,27,17,05,22.20
2007,06,27,17,06,22.20
2007,06,27,17,07,22.20
2007,06,27,17,08,22.10
2007,06,27,17,09,22.10
2007,06,27,17,10,22.00
2007,06,27,17,11,22.00
2007,06,27,17,12,22.00
2007,06,27,17,13,21.90
2007,06,27,17,14,21.80
2007,06,27,17,15,21.80
2007,06,27,17,16,21.80
2007,06,27,17,17,21.80
2007,06,27,17,18,21.70
2007,06,27,17,19,21.70
2007,06,27,17,20,21.70
2007,06,27,17,21,21.70